Terug naar catalogus

DECIMALSAT-1

ActiefWetenschapSSO
NORAD 68457·PAYLOAD·🇮🇹 Italy
Deze satellietnaam is nog niet bevestigd door officiële bronnen.

Gelanceerd Mar 30, 2026 vanaf Vandenberg Space Force Base

Loading…

Volgende Passages (komende 24 uur)

TLE

VersSource: Space-Track

Epoch: Sep 13, 2026, 19:59 UTC

1 68457U 26067AT  26256.83307989  .00009142  00000-0  41621-3 0  9992
2 68457  97.4643 214.4094 0003416  68.5398 291.6202 15.20914596 25418

Volg DECIMALSAT-1 in realtime met AllMySat

Download on the App Store